Weather History for Whitefield, NH

Change the Weather History Date:

Friday, October 7, 2011

  Actual Average Record
Temperature  
Mean Temperature 44 °F -  
Max Temperature 61 °F 58 °F 79 °F (2005)
Min Temperature 27 °F 31 °F 21 °F (1999)
Degree Days  
Heating Degree Days 22    
Moisture  
Dew Point 32 °F    
Average Humidity 73    
Maximum Humidity 93    
Minimum Humidity 31    
Precipitation  
Precipitation 0.00 in - - ()
Sea Level Pressure  
Sea Level Pressure 30.43 in    
Wind  
Wind Speed 1 mph (SW)    
Max Wind Speed 6 mph    
Max Gust Speed -    
Visibility 10 miles    
Events      
Averages and records for this station are not official NWS values.
T = Trace of Precipitation, MM = Missing Value Source: NWS Daily Summary

Daily Weather History Graph

Daily Weather History Graph

Search for Another Location

Airport:

Trip Planner

Search our weather history database for the weather conditions in past years. The results will help you decide how hot, cold, wet, or windy it might be!

Date:

Astronomy

Oct. 07, 2011 Rise Set
Actual Time 6:50 AM EDT 6:16 PM EDT
Civil Twilight 6:21 AM EDT 6:45 PM EDT
Nautical Twilight 5:48 AM EDT 7:19 PM EDT
Astronomical Twilight 5:14 AM EDT 7:52 PM EDT
Moon 4:05 PM EDT (10/7) 2:27 AM EDT (10/7)
Length of Visible Light 12h 23m
Length of Day
11h 25m
Waxing Gibbous, 83% of the Moon is Illuminated
Oct 7
Waxing Gibbous
Oct 11
Full
Oct 19
Last Quarter
Oct 26
New
Nov 2
First Quarter

Hourly Weather History & Observations

Time (EDT) Temp. Dew Point Humidity Pressure Visibility Wind Dir Wind Speed Gust Speed Precip Events Conditions
12:52 AM 30.9 °F 28.9 °F 92% 30.39 in 10.0 mi Calm Calm - N/A   Overcast
1:52 AM 30.9 °F 28.9 °F 92% 30.40 in 10.0 mi Calm Calm - N/A   Scattered Clouds
2:52 AM 30.0 °F 27.0 °F 88% 30.40 in 10.0 mi Calm Calm - N/A   Clear
3:52 AM 28.0 °F 26.1 °F 92% 30.41 in 10.0 mi Calm Calm - N/A   Clear
4:52 AM 28.0 °F 25.0 °F 88% 30.42 in 10.0 mi Calm Calm - N/A   Clear
5:52 AM 27.0 °F 25.0 °F 92% 30.43 in 10.0 mi Calm Calm - N/A   Clear
6:52 AM 27.0 °F 24.1 °F 89% 30.45 in 10.0 mi Calm Calm - N/A   Clear
7:52 AM 28.9 °F 27.0 °F 92% 30.48 in 10.0 mi Calm Calm - N/A   Clear
8:52 AM 34.0 °F 30.9 °F 89% 30.48 in 10.0 mi Calm Calm - 0.00 in   Clear
9:52 AM 41.0 °F 34.0 °F 76% 30.49 in 10.0 mi Calm Calm - N/A   Clear
10:52 AM 48.9 °F 35.1 °F 59% 30.48 in 10.0 mi Calm Calm - N/A   Clear
11:52 AM 53.1 °F 30.9 °F 43% 30.47 in 10.0 mi North 4.6 mph - N/A   Overcast
12:52 PM 55.0 °F 28.9 °F 37% 30.43 in 10.0 mi Calm Calm - N/A   Clear
1:52 PM 57.9 °F 28.0 °F 32% 30.42 in 10.0 mi Variable 3.5 mph - N/A   Mostly Cloudy
2:52 PM 60.1 °F 28.9 °F 31% 30.41 in 10.0 mi Variable 4.6 mph - N/A   Clear
3:52 PM 60.1 °F 30.0 °F 32% 30.40 in 10.0 mi SSW 5.8 mph - N/A   Clear
4:52 PM 60.1 °F 33.1 °F 36% 30.39 in 10.0 mi South 4.6 mph - N/A   Clear
5:52 PM 54.0 °F 39.0 °F 57% 30.40 in 10.0 mi Calm Calm - N/A   Clear
6:52 PM 46.9 °F 42.1 °F 83% 30.41 in 10.0 mi Calm Calm - N/A   Clear
7:52 PM 44.1 °F 39.9 °F 85% 30.43 in 10.0 mi Calm Calm - N/A   Clear
8:52 PM 42.1 °F 39.0 °F 89% 30.43 in 10.0 mi Calm Calm - N/A   Clear
9:52 PM 39.9 °F 37.9 °F 93% 30.43 in 10.0 mi Calm Calm - N/A   Clear
10:52 PM 39.0 °F 37.0 °F 93% 30.42 in 10.0 mi Calm Calm - N/A   Clear
11:52 PM 37.9 °F 36.0 °F 93% 30.42 in 10.0 mi Calm Calm - N/A   Clear